This is the latest recevied weather packets stored in our database for station/object NY3Q. If no packets are shown the sender has not sent any weather packets the latest 10 day(s).
| Time | Temp. | Humidity | Pressure | Rain* | Wind** | Luminosity | Snow |
|---|---|---|---|---|---|---|---|
| 1777507618 | 26.67° C | 70% | 1010.1 hPa | 0 mm | - | 1 W/m² | - |
| 1777507315 | 26.67° C | 70% | 1010.2 hPa | 0 mm | - | 1 W/m² | - |
| 1777503674 | 28.89° C | 63% | 1009.9 hPa | 0 mm | - | 47 W/m² | - |
| 1777500341 | 32.22° C | 42% | 1009.4 hPa | 0 mm | - | 84 W/m² | - |
| 1777497611 | 33.33° C | 40% | 1010.2 hPa | 0 mm | - | 106 W/m² | - |
| 1777497004 | 33.89° C | 39% | 1009.9 hPa | 0 mm | - | 417 W/m² | - |
| 1777494880 | 33.89° C | 40% | 1010.4 hPa | 0 mm | - | 520 W/m² | - |
| 1777492455 | 35° C | 39% | 1011.8 hPa | 0 mm | - | 550 W/m² | - |
| 1777491545 | 35.56° C | 40% | 1011.9 hPa | 0 mm | - | 427 W/m² | - |
| 1777491243 | 35° C | 38% | 1012 hPa | 0 mm | - | 578 W/m² | - |
| 1777490938 | 35° C | 38% | 1012 hPa | 0 mm | - | 580 W/m² | - |
| 1777490634 | 34.44° C | 40% | 1012.2 hPa | 0 mm | - | 604 W/m² | - |
| 1777490330 | 34.44° C | 41% | 1012.2 hPa | 0 mm | - | 596 W/m² | - |
| 1777490028 | 34.44° C | 42% | 1012.2 hPa | 0 mm | - | 600 W/m² | - |
| 1777489726 | 33.89° C | 41% | 1012.3 hPa | 0 mm | - | 624 W/m² | - |
| 1777489423 | 35° C | 41% | 1012.5 hPa | 0 mm | - | 149 W/m² | - |
| 1777489119 | 35° C | 43% | 1012.4 hPa | 0 mm | - | 650 W/m² | - |
| 1777488817 | 34.44° C | 45% | 1012.8 hPa | 0 mm | - | 664 W/m² | - |
| 1777487910 | 34.44° C | 46% | 1012.9 hPa | 0 mm | - | 696 W/m² | - |
| 1777487304 | 32.22° C | 51% | 1012.9 hPa | 0 mm | - | 693 W/m² | - |
| 1777486697 | 31.11° C | 52% | 1013.4 hPa | 0 mm | - | 299 W/m² | - |
| 1777486395 | 31.11° C | 52% | 1013.1 hPa | 0 mm | - | 222 W/m² | - |
| 1777486093 | 31.67° C | 50% | 1013.3 hPa | 0 mm | - | 212 W/m² | - |
| 1777485789 | 31.67° C | 50% | 1013.6 hPa | 0 mm | - | 192 W/m² | - |
| 1777485485 | 32.22° C | 50% | 1013.4 hPa | 0 mm | - | 261 W/m² | - |
* Rain latest hour (hover to see other rain measurements)
** Current wind speed in m/s (hover to see current wind gust speed)